User: anonymous   Login
Location: Newark
(49.9833°N, 3.7472°E)
Time: 09:26:02
(UTC+00:00)
Language:

N. Korean satellite - Orbit

View from above orbital plane
View from above orbital plane
View from above satellite
View from above satellite

Ground track
Ground track

The orbit data is extracted from the following two-line orbital elements,

1 39026U 12072A   19291.73789268 +.00001393 +00000-0 +52460-4 0  9991
2 39026 097.2154 290.9753 0038740 029.8206 330.5230 15.28074292380179
Epoch (UTC): 18 October 2019 17:42:33
Eccentricity: 0.0038740
inclination: 97.2154°
perigee height: 455 km
apogee height: 508 km
right ascension of ascending node: 290.9753°
argument of perigee: 29.8206°
revolutions per day: 15.28074292
mean anomaly at epoch: 330.5230°
orbit number at epoch: 38017

The dashed part of the orbit path shows where the satellite is in the earth's shadow,  

DLR